Weather History for KABI - September, 2012

Change the Weather History Date:

Tuesday, September 25, 2012

  Actual Average Record
Temperature  
Mean Temperature 82 °F 72 °F  
Max Temperature 94 °F 84 °F 104 °F (1977)
Min Temperature 70 °F 61 °F 40 °F (1975)
Degree Days  
Heating Degree Days 0 1  
Month to date heating degree days 6 6  
Since 1 July heating degree days 6 6  
Cooling Degree Days 17 8  
Month to date cooling degree days 346 290  
Year to date cooling degree days 2834 2235  
Growing Degree Days 32 (Base 50)    
Moisture  
Dew Point 59 °F    
Average Humidity 50    
Maximum Humidity 73    
Minimum Humidity 27    
Precipitation  
Precipitation 0.00 in 0.07 in 2.30 in (1893)
Month to date precipitation 1.40 1.88  
Year to date precipitation 15.06 18.84  
Sea Level Pressure  
Sea Level Pressure 29.84 in    
Wind  
Wind Speed 18 mph (South)    
Max Wind Speed 26 mph    
Max Gust Speed 35 mph    
Visibility 10 miles    
Events Thunderstorm    
T = Trace of Precipitation, MM = Missing Value Source: NWS Daily Summary

Daily Weather History Graph

Daily Weather History Graph

Search for Another Location

Airport or City:

Trip Planner

Search our weather history database for the weather conditions in past years. The results will help you decide how hot, cold, wet, or windy it might be!

Date:

Astronomy

Sep. 25, 2012 Rise Set
Actual Time 7:29 AM CDT 7:30 PM CDT
Civil Twilight 7:04 AM CDT 7:55 PM CDT
Nautical Twilight 6:36 AM CDT 8:23 PM CDT
Astronomical Twilight 6:07 AM CDT 8:52 PM CDT
Moon 4:45 PM CDT (9/25) 3:06 AM CDT (9/25)
Length of Visible Light 12h 50m
Length of Day
12h 01m
Waxing Gibbous, 80% of the Moon is Illuminated
Sep 25
Waxing Gibbous
Sep 29
Full
Oct 8
Last Quarter
Oct 15
New
Oct 21
First Quarter

Hourly Weather History & Observations

Time (CDT) Temp. Heat Index Dew Point Humidity Pressure Visibility Wind Dir Wind Speed Gust Speed Precip Events Conditions
12:52 AM 77.0 °F - 57.0 °F 50% 29.88 in 10.0 mi South 17.3 mph 25.3 mph N/A   Clear
1:52 AM 77.0 °F - 59.0 °F 54% 29.87 in 10.0 mi South 17.3 mph 27.6 mph N/A   Clear
2:52 AM 75.9 °F - 60.1 °F 58% 29.87 in 10.0 mi South 18.4 mph 27.6 mph N/A   Clear
3:52 AM 75.0 °F - 60.1 °F 60% 29.86 in 10.0 mi SSE 17.3 mph 29.9 mph N/A   Clear
4:52 AM 73.9 °F - 61.0 °F 64% 29.86 in 10.0 mi South 19.6 mph 25.3 mph N/A   Clear
5:52 AM 72.0 °F - 62.1 °F 71% 29.86 in 10.0 mi South 15.0 mph 23.0 mph N/A   Clear
6:52 AM 71.1 °F - 63.0 °F 75% 29.87 in 10.0 mi South 17.3 mph - N/A   Clear
7:52 AM 71.1 °F - 63.0 °F 75% 29.89 in 10.0 mi South 13.8 mph - N/A   Clear
8:52 AM 73.0 °F - 64.0 °F 73% 29.88 in 10.0 mi South 18.4 mph 29.9 mph N/A   Clear
9:52 AM 75.9 °F - 63.0 °F 64% 29.89 in 10.0 mi South 20.7 mph 29.9 mph N/A   Clear
10:52 AM 81.0 °F 81.9 °F 62.1 °F 52% 29.89 in 10.0 mi South 17.3 mph 32.2 mph N/A   Clear
11:52 AM 84.0 °F 84.0 °F 60.1 °F 44% 29.88 in 10.0 mi South 20.7 mph 29.9 mph N/A   Clear
12:52 PM 87.1 °F 86.5 °F 59.0 °F 39% 29.86 in 10.0 mi South 21.9 mph 29.9 mph N/A   Clear
1:52 PM 90.0 °F 88.8 °F 57.9 °F 34% 29.83 in 10.0 mi SSW 18.4 mph 27.6 mph N/A   Clear
2:52 PM 91.9 °F 91.2 °F 59.0 °F 33% 29.81 in 10.0 mi South 17.3 mph 25.3 mph N/A   Clear
3:52 PM 93.9 °F 92.9 °F 57.9 °F 30% 29.77 in 10.0 mi South 18.4 mph 25.3 mph N/A   Clear
4:52 PM 93.9 °F 92.2 °F 55.9 °F 28% 29.77 in 10.0 mi South 17.3 mph 27.6 mph N/A   Clear
5:52 PM 91.9 °F 89.5 °F 54.0 °F 27% 29.77 in 10.0 mi SSW 17.3 mph 27.6 mph N/A   Clear
6:52 PM 90.0 °F - 52.0 °F 27% 29.76 in 10.0 mi South 18.4 mph 27.6 mph N/A   Clear
7:52 PM 84.9 °F 83.2 °F 53.1 °F 33% 29.77 in 10.0 mi SSE 13.8 mph - N/A   Clear
8:47 PM 82.4 °F 81.7 °F 55.4 °F 39% 29.88 in 10.0 mi South 15.0 mph - N/A Thunderstorm Clear
8:52 PM 82.9 °F 82.0 °F 55.0 °F 38% 29.81 in 10.0 mi South 15.0 mph - N/A Thunderstorm Clear
9:52 PM 82.9 °F 82.4 °F 57.0 °F 41% 29.81 in 10.0 mi South 19.6 mph 26.5 mph N/A   Clear
10:52 PM 81.0 °F 81.1 °F 57.9 °F 45% 29.82 in 10.0 mi South 17.3 mph 25.3 mph N/A   Clear
11:52 PM 80.1 °F 80.6 °F 57.9 °F 47% 29.83 in 10.0 mi South 16.1 mph 26.5 mph N/A   Clear